When you browse on this site, cookies collect data to enhance your experience and personalize the content and advertising you see.
Visit our Privacy Policy to learn more. By continuing to use the site, you agree to this use of cookies and data.

Stündliche Wetter Bolshie Gridyushki

Heute, 27 September, Sonntag

Zeit Temperatur Niederschläge Wind Luftdruck Luftfeuchtigkeit
00:00 +15°C° 0 mm 5 m/S 745 mmHg 69%
01:00 +15°C° 0 mm 5 m/S 745 mmHg 68%
02:00 +14°C° 0 mm 5 m/S 745 mmHg 68%
03:00 +14°C° 0 mm 5 m/S 745 mmHg 66%
04:00 +14°C° 0 mm 5 m/S 745 mmHg 64%
05:00 +14°C° 0 mm 5 m/S 745 mmHg 62%
06:00 +14°C° 0 mm 6 m/S 745 mmHg 62%
07:00 +14°C° 0 mm 6 m/S 745 mmHg 62%
08:00 +14°C° 0 mm 6 m/S 745 mmHg 62%
09:00 +15°C° 0 mm 7 m/S 746 mmHg 60%
10:00 +17°C° 0 mm 7 m/S 746 mmHg 58%
11:00 +18°C° 0 mm 7 m/S 746 mmHg 56%
12:00 +20°C° 0 mm 8 m/S 746 mmHg 55%
13:00 +20°C° 0 mm 8 m/S 746 mmHg 55%
14:00 +21°C° 0 mm 8 m/S 745 mmHg 54%
15:00 +20°C° 0 mm 7 m/S 745 mmHg 57%
16:00 +18°C° 0 mm 7 m/S 745 mmHg 60%
17:00 +17°C° 0 mm 6 m/S 745 mmHg 63%
18:00 +16°C° 0.6 mm 6 m/S 745 mmHg 71%
19:00 +15°C° 0.6 mm 6 m/S 745 mmHg 78%
20:00 +14°C° 0.6 mm 7 m/S 745 mmHg 85%
21:00 +14°C° 0.5 mm 6 m/S 746 mmHg 86%
22:00 +13°C° 0.5 mm 6 m/S 746 mmHg 86%
23:00 +13°C° 0.5 mm 5 m/S 746 mmHg 87%

Morgen, 28 September, Montag

Zeit Temperatur Niederschläge Wind Luftdruck Luftfeuchtigkeit
00:00 +13°C° 0.2 mm 5 m/S 746 mmHg 88%
01:00 +13°C° 0.2 mm 5 m/S 746 mmHg 90%
02:00 +12°C° 0.2 mm 4 m/S 746 mmHg 92%
03:00 +12°C° 0.2 mm 4 m/S 746 mmHg 93%
04:00 +13°C° 0.2 mm 3 m/S 746 mmHg 94%
05:00 +13°C° 0.2 mm 3 m/S 746 mmHg 94%
06:00 +12°C° 0.3 mm 3 m/S 747 mmHg 93%
07:00 +12°C° 0.3 mm 4 m/S 747 mmHg 91%
08:00 +11°C° 0.3 mm 4 m/S 747 mmHg 90%
09:00 +10°C° 0.1 mm 5 m/S 748 mmHg 89%
10:00 +10°C° 0.1 mm 5 m/S 749 mmHg 87%
11:00 +10°C° 0.1 mm 5 m/S 749 mmHg 86%
12:00 +12°C° 0.1 mm 5 m/S 749 mmHg 83%
13:00 +12°C° 0.1 mm 4 m/S 750 mmHg 79%
14:00 +13°C° 0.1 mm 4 m/S 750 mmHg 75%
15:00 +13°C° 0.1 mm 3 m/S 750 mmHg 76%
16:00 +13°C° 0.1 mm 3 m/S 750 mmHg 76%
17:00 +14°C° 0.1 mm 2 m/S 751 mmHg 77%
18:00 +13°C° 0 mm 2 m/S 751 mmHg 78%
19:00 +13°C° 0 mm 2 m/S 751 mmHg 79%
20:00 +12°C° 0 mm 2 m/S 751 mmHg 81%
21:00 +12°C° 0 mm 2 m/S 752 mmHg 82%
22:00 +12°C° 0 mm 2 m/S 752 mmHg 83%
23:00 +10°C° 0 mm 3 m/S 752 mmHg 85%

übermorgen, 29 September, Dienstag

Zeit Temperatur Niederschläge Wind Luftdruck Luftfeuchtigkeit
00:00 +10°C° 0 mm 2 m/S 752 mmHg 86%
01:00 +10°C° 0 mm 2 m/S 752 mmHg 88%
02:00 +9°C° 0 mm 2 m/S 752 mmHg 90%
03:00 +9°C° 0 mm 2 m/S 751 mmHg 90%
04:00 +9°C° 0 mm 2 m/S 751 mmHg 91%
05:00 +8°C° 0 mm 2 m/S 751 mmHg 91%
06:00 +9°C° 0 mm 2 m/S 751 mmHg 89%
07:00 +10°C° 0 mm 2 m/S 751 mmHg 86%
08:00 +11°C° 0 mm 3 m/S 751 mmHg 83%
09:00 +13°C° 0 mm 3 m/S 751 mmHg 77%
10:00 +14°C° 0 mm 3 m/S 751 mmHg 70%
11:00 +17°C° 0 mm 3 m/S 751 mmHg 64%
12:00 +18°C° 0 mm 3 m/S 751 mmHg 62%
13:00 +19°C° 0 mm 3 m/S 750 mmHg 59%
14:00 +19°C° 0 mm 3 m/S 750 mmHg 57%
15:00 +18°C° 0 mm 3 m/S 750 mmHg 62%
16:00 +17°C° 0 mm 3 m/S 750 mmHg 67%
17:00 +16°C° 0 mm 3 m/S 749 mmHg 72%
18:00 +14°C° 0 mm 3 m/S 749 mmHg 77%
19:00 +13°C° 0 mm 3 m/S 749 mmHg 82%
20:00 +12°C° 0 mm 3 m/S 749 mmHg 88%
21:00 +12°C° 0 mm 3 m/S 749 mmHg 90%
22:00 +11°C° 0 mm 3 m/S 749 mmHg 92%
23:00 +11°C° 0 mm 3 m/S 749 mmHg 94%

30 September, Mittwoch

Zeit Temperatur Niederschläge Wind Luftdruck Luftfeuchtigkeit
00:00 +11°C° 0 mm 3 m/S 749 mmHg 92%
01:00 +11°C° 0 mm 3 m/S 748 mmHg 90%
02:00 +11°C° 0 mm 3 m/S 748 mmHg 88%
03:00 +10°C° 0 mm 3 m/S 748 mmHg 87%
04:00 +10°C° 0 mm 3 m/S 748 mmHg 86%
05:00 +9°C° 0 mm 3 m/S 748 mmHg 85%
06:00 +10°C° 0 mm 3 m/S 748 mmHg 82%
07:00 +10°C° 0 mm 4 m/S 748 mmHg 78%
08:00 +11°C° 0 mm 4 m/S 748 mmHg 75%
09:00 +12°C° 0 mm 4 m/S 748 mmHg 70%
10:00 +13°C° 0 mm 4 m/S 748 mmHg 66%
11:00 +15°C° 0 mm 4 m/S 747 mmHg 61%
12:00 +15°C° 0 mm 4 m/S 747 mmHg 62%
13:00 +15°C° 0 mm 4 m/S 747 mmHg 62%
14:00 +17°C° 0 mm 4 m/S 747 mmHg 62%
15:00 +15°C° 0 mm 4 m/S 747 mmHg 65%
16:00 +14°C° 0 mm 4 m/S 747 mmHg 67%
17:00 +14°C° 0 mm 4 m/S 747 mmHg 70%
18:00 +13°C° 0 mm 4 m/S 747 mmHg 71%
19:00 +12°C° 0 mm 4 m/S 747 mmHg 72%
20:00 +11°C° 0 mm 4 m/S 747 mmHg 73%
21:00 +11°C° 0 mm 4 m/S 747 mmHg 72%
22:00 +11°C° 0 mm 4 m/S 747 mmHg 70%
23:00 +11°C° 0 mm 4 m/S 747 mmHg 68%

1 Oktober, Donnerstag

Zeit Temperatur Niederschläge Wind Luftdruck Luftfeuchtigkeit
00:00 +11°C° 0 mm 4 m/S 747 mmHg 68%
01:00 +10°C° 0 mm 4 m/S 747 mmHg 67%
02:00 +8°C° 0 mm 4 m/S 747 mmHg 67%
03:00 +8°C° 0 mm 4 m/S 747 mmHg 67%
04:00 +8°C° 0 mm 4 m/S 747 mmHg 67%
05:00 +7°C° 0 mm 4 m/S 747 mmHg 67%
06:00 +8°C° 0 mm 5 m/S 747 mmHg 66%
07:00 +8°C° 0 mm 5 m/S 747 mmHg 65%
08:00 +8°C° 0 mm 5 m/S 747 mmHg 64%
09:00 +10°C° 0 mm 5 m/S 746 mmHg 61%
10:00 +11°C° 0 mm 6 m/S 746 mmHg 59%
11:00 +13°C° 0 mm 6 m/S 746 mmHg 56%
12:00 +14°C° 0 mm 6 m/S 746 mmHg 56%
13:00 +15°C° 0 mm 6 m/S 746 mmHg 55%
14:00 +16°C° 0 mm 7 m/S 746 mmHg 55%
15:00 +15°C° 0 mm 6 m/S 746 mmHg 58%
16:00 +15°C° 0 mm 6 m/S 746 mmHg 62%
17:00 +14°C° 0 mm 5 m/S 746 mmHg 65%
18:00 +14°C° 0 mm 5 m/S 747 mmHg 67%
19:00 +13°C° 0 mm 5 m/S 747 mmHg 68%
20:00 +13°C° 0 mm 5 m/S 747 mmHg 70%
21:00 +12°C° 0 mm 5 m/S 747 mmHg 72%
22:00 +12°C° 0 mm 5 m/S 747 mmHg 74%
23:00 +10°C° 0 mm 5 m/S 747 mmHg 76%

2 Oktober, Freitag

Zeit Temperatur Niederschläge Wind Luftdruck Luftfeuchtigkeit
00:00 +10°C° 0 mm 5 m/S 747 mmHg 75%
01:00 +10°C° 0 mm 5 m/S 747 mmHg 75%
02:00 +9°C° 0 mm 5 m/S 747 mmHg 74%
03:00 +10°C° 0 mm 4 m/S 748 mmHg 72%
04:00 +10°C° 0 mm 4 m/S 748 mmHg 70%
05:00 +10°C° 0 mm 4 m/S 748 mmHg 68%
06:00 +10°C° 0 mm 5 m/S 748 mmHg 65%
07:00 +10°C° 0 mm 5 m/S 748 mmHg 63%
08:00 +12°C° 0 mm 5 m/S 748 mmHg 60%
09:00 +13°C° 0 mm 6 m/S 748 mmHg 59%
10:00 +14°C° 0 mm 6 m/S 748 mmHg 57%
11:00 +14°C° 0 mm 6 m/S 748 mmHg 56%
12:00 +15°C° 0 mm 7 m/S 748 mmHg 56%
13:00 +15°C° 0 mm 7 m/S 748 mmHg 56%
14:00 +15°C° 0 mm 7 m/S 749 mmHg 56%
15:00 +15°C° 0 mm 6 m/S 749 mmHg 58%
16:00 +14°C° 0 mm 6 m/S 749 mmHg 61%
17:00 +13°C° 0 mm 5 m/S 749 mmHg 63%
18:00 +13°C° 0 mm 5 m/S 749 mmHg 65%
19:00 +12°C° 0 mm 5 m/S 749 mmHg 67%
20:00 +10°C° 0 mm 5 m/S 749 mmHg 69%
21:00 +10°C° 0 mm 5 m/S 750 mmHg 71%
22:00 +10°C° 0 mm 5 m/S 750 mmHg 74%
23:00 +10°C° 0 mm 5 m/S 750 mmHg 77%
Mehr zeigen